Wind_Speed
40 40 40 41 41 42 42 42 42 42 43 44 45 46 46 47 47 48 48 49 50 50 50 50 49 50 52 53 53 54 54 54 54 53 53 53 53 52
41 41 41 41 42 42 42 43 43 43 43 44 45 46 47 46 46 46 47 48 48 49 49 50 51 51 52 53 53 52 53 54 54 54 54 54 54 54
40 40 40 41 41 42 42 43 44 44 44 44 45 46 46 46 45 46 47 48 49 50 51 52 52 52 53 53 52 53 53 54 55 55 55 56 56 57
40 40 41 41 42 42 43 44 44 45 45 45 46 46 45 45 45 46 46 47 48 49 50 51 52 52 53 53 53 54 54 54 54 56 57 58 58 58
41 42 42 42 43 43 44 45 46 47 47 47 46 45 45 45 45 45 46 47 48 49 50 51 51 52 53 53 54 55 56 56 56 56 57 57 58 58
42 42 43 43 44 45 46 47 47 48 49 48 47 46 46 46 46 46 47 48 48 50 51 51 52 53 54 55 56 56 57 59 59 58 57 58 59 59
43 43 44 45 45 46 47 48 49 49 49 48 47 47 47 48 48 49 49 49 49 50 51 52 52 53 55 55 56 56 58 59 60 61 60 59 60 60
44 45 45 46 47 47 48 48 48 48 47 47 47 48 48 49 50 50 50 50 49 50 51 52 53 54 56 56 57 58 59 60 60 61 61 61 61 61
44 45 46 47 47 47 48 49 49 48 48 48 48 48 48 49 49 49 49 49 49 49 50 50 52 53 54 55 56 58 59 59 60 60 61 61 61 62
45 45 46 47 47 48 49 49 48 48 48 49 49 49 49 49 49 49 49 49 49 50 51 51 51 52 53 54 55 56 58 58 59 60 61 62 62 63
45 45 46 47 47 48 48 48 48 48 48 49 48 48 49 49 49 49 49 49 49 50 51 52 52 52 53 53 54 55 55 56 57 58 60 60 61 62
44 45 45 46 46 46 46 46 46 46 47 47 47 47 48 48 49 49 49 50 50 50 51 52 52 52 51 51 52 53 54 54 55 56 57 58 59 59
44 44 45 45 45 45 45 45 45 46 46 46 46 46 47 48 48 49 49 50 50 50 50 50 50 50 50 49 50 51 52 52 52 53 54 55 56 57
44 44 44 44 44 44 45 45 45 45 45 45 46 46 47 47 48 48 48 49 49 49 49 49 48 48 48 47 47 48 49 50 50 49 50 50 52 53
43 43 43 43 43 43 43 43 43 43 43 44 44 45 45 46 46 46 46 46 46 47 47 47 46 46 46 45 45 45 45 45 46 46 46 46 46 48
42 42 41 42 42 42 42 42 42 42 43 43 44 44 45 45 45 44 43 43 43 43 44 44 44 43 43 43 43 42 42 41 41 41 41 41 41 42
40 40 41 41 41 40 41 41 41 42 42 43 43 43 43 43 43 42 41 41 40 40 41 42 42 42 41 41 40 39 39 38 38 38 37 36 37 38
39 39 40 40 40 40 41 41 41 41 42 42 42 41 41 41 41 40 39 39 39 39 39 39 39 38 38 37 38 37 36 35 35 34 35 34 34 35
39 39 39 39 39 40 41 41 41 41 41 41 40 40 40 39 38 38 38 38 38 37 37 37 37 36 35 34 34 35 34 33 32 31 32 32 32 32
38 38 38 39 39 40 40 40 40 40 40 39 39 38 38 37 36 36 37 36 36 35 35 35 35 34 33 31 30 31 32 31 29 29 28 28 29 29
37 37 37 38 39 39 40 39 39 39 39 38 38 37 36 35 35 35 36 35 34 33 32 32 32 32 31 29 28 28 28 28 27 26 26 25 25 25
37 36 37 38 38 38 38 37 37 37 37 37 36 35 34 34 34 34 34 33 32 32 32 31 31 31 29 28 26 26 26 25 24 24 23 22 22 22
36 36 36 37 37 37 36 36 36 36 35 35 34 34 34 33 33 33 32 32 32 32 31 30 29 28 27 26 25 24 23 22 20 20 20 20 20 20
Wind_Direction
287 287 287 288 288 288 288 288 288 288 287 286 286 285 284 283 280 278 277 275 273 272 271 269 268 267 266 265 264 263 262 261 261 261 260 259 259 258
287 288 289 290 290 290 289 289 290 290 290 289 287 285 284 283 281 279 278 276 275 273 271 270 269 269 268 267 265 264 263 262 260 260 259 258 258 258
288 288 290 291 291 291 291 291 292 292 292 292 291 289 287 284 282 280 279 278 276 274 272 272 271 270 269 269 267 265 265 263 262 260 259 259 257 257
288 288 289 290 290 290 291 292 292 292 293 292 291 290 288 285 283 281 280 279 277 276 275 274 273 271 271 270 269 267 265 264 263 261 260 259 258 258
289 288 288 289 289 290 290 291 292 291 291 292 291 289 287 286 284 283 282 281 278 277 276 274 273 272 272 271 270 269 266 264 263 262 260 260 259 258
289 288 288 289 289 290 290 291 291 291 291 291 289 289 288 286 285 284 283 282 281 279 277 275 273 272 271 271 270 269 267 265 264 262 261 260 258 257
289 289 289 289 290 290 291 292 292 292 291 290 289 288 288 287 286 285 284 283 283 281 279 276 274 273 271 270 269 268 266 265 263 262 261 261 259 256
289 289 289 289 290 290 291 292 293 293 292 291 290 289 289 289 288 287 286 284 283 281 280 278 277 275 274 272 271 269 268 266 265 264 263 261 259 256
289 290 290 290 290 291 292 293 293 292 292 291 291 290 290 290 289 288 287 284 283 282 281 280 278 277 275 274 272 270 268 266 265 264 263 262 260 258
290 290 290 291 291 292 293 293 293 292 292 291 291 291 291 291 290 289 287 286 285 284 283 282 280 279 277 276 274 272 270 267 265 264 263 263 261 260
290 291 292 292 293 294 294 293 292 292 292 293 292 292 292 292 291 290 289 288 287 286 285 284 283 281 279 277 276 274 272 270 267 265 264 263 262 261
292 292 293 294 294 295 295 294 293 293 294 294 294 294 294 294 293 292 290 289 288 287 286 285 285 283 280 278 276 274 273 271 270 268 266 264 263 261
293 293 293 294 295 296 296 295 295 295 295 295 294 294 295 295 294 293 292 291 290 289 288 288 287 285 283 281 278 276 274 273 271 269 267 265 263 261
293 293 294 294 295 296 296 296 296 296 296 296 296 296 296 297 296 295 294 293 292 291 290 289 289 288 286 284 280 277 276 275 273 270 268 266 264 261
293 294 294 295 296 297 298 298 298 297 298 298 298 298 298 299 299 298 297 295 294 293 292 292 291 289 288 287 284 281 278 276 274 272 269 266 264 261
293 294 295 297 298 299 300 300 299 299 299 299 299 299 299 300 300 300 299 298 297 296 295 295 293 291 290 289 288 285 282 279 275 273 269 265 263 262
295 295 296 298 299 300 301 301 301 301 301 301 301 301 301 301 302 302 301 301 300 298 297 297 295 293 292 291 290 288 285 281 277 273 268 264 263 263
295 296 297 298 299 300 301 301 302 302 302 302 303 303 302 302 303 303 302 302 302 301 300 299 298 295 293 291 290 289 286 283 279 272 268 265 262 261
296 296 297 298 299 301 302 302 303 303 303 303 303 304 303 303 303 304 304 304 304 303 302 302 301 299 296 292 291 290 288 284 279 274 269 265 262 260
296 297 298 300 301 302 303 303 303 304 304 304 304 305 304 304 304 305 305 306 306 306 305 304 303 302 301 297 294 292 291 287 282 276 271 266 263 261
296 298 299 301 302 303 304 305 304 304 304 304 304 305 305 305 305 306 307 307 308 308 308 307 306 305 304 301 298 295 293 290 284 278 272 266 261 259
296 298 300 302 303 304 305 305 305 304 304 304 305 305 305 306 307 308 309 309 309 309 310 309 308 307 306 305 302 299 296 293 286 280 274 269 262 258
296 298 300 302 303 303 304 305 305 305 305 305 305 305 306 307 307 309 309 309 309 310 311 310 309 308 307 308 306 303 300 296 289 281 274 271 268 265
Height
5694 5692 5690 5688 5685 5682 5680 5677 5675 5673 5671 5667 5663 5660 5657 5655 5653 5652 5650 5649 5649 5648 5648 5648 5648 5648 5649 5650 5651 5653 5654 5656 5658 5659 5662 5664 5667 5669
5684 5682 5679 5677 5674 5672 5669 5666 5663 5660 5658 5654 5651 5647 5644 5642 5640 5638 5637 5635 5635 5634 5634 5634 5634 5634 5634 5635 5636 5637 5639 5641 5642 5644 5646 5649 5651 5654
5673 5671 5669 5667 5664 5661 5658 5655 5652 5648 5645 5642 5638 5635 5632 5629 5627 5625 5624 5622 5621 5620 5619 5619 5619 5619 5619 5620 5621 5622 5623 5624 5626 5628 5630 5633 5635 5638
5663 5661 5658 5656 5653 5650 5647 5644 5640 5636 5633 5630 5626 5623 5619 5617 5615 5612 5610 5608 5607 5606 5605 5604 5604 5604 5604 5604 5604 5605 5607 5608 5610 5612 5614 5617 5619 5620
5652 5650 5647 5645 5642 5639 5636 5632 5628 5624 5620 5617 5614 5610 5607 5604 5602 5600 5597 5595 5593 5592 5591 5590 5589 5588 5588 5588 5588 5589 5590 5591 5592 5594 5596 5598 5601 5603
5641 5638 5636 5633 5630 5627 5623 5619 5616 5612 5608 5604 5601 5598 5594 5591 5589 5586 5584 5581 5579 5577 5575 5574 5573 5572 5572 5572 5572 5572 5572 5573 5574 5575 5577 5580 5582 5585
5630 5627 5624 5621 5617 5614 5610 5607 5603 5599 5595 5591 5587 5584 5581 5578 5575 5572 5569 5567 5564 5561 5560 5558 5557 5556 5555 5554 5553 5553 5553 5554 5555 5556 5558 5560 5563 5566
5618 5615 5611 5608 5605 5601 5597 5593 5589 5585 5581 5578 5574 5570 5567 5563 5560 5556 5554 5551 5549 5547 5544 5542 5539 5538 5536 5535 5534 5534 5534 5534 5535 5536 5538 5540 5542 5545
5605 5602 5599 5596 5592 5589 5585 5580 5576 5571 5568 5564 5560 5556 5552 5549 5545 5541 5538 5534 5532 5530 5527 5526 5523 5521 5519 5516 5515 5514 5514 5514 5515 5516 5517 5519 5521 5524
5593 5590 5587 5583 5579 5576 5572 5567 5562 5558 5554 5550 5546 5542 5537 5533 5529 5526 5522 5519 5517 5514 5511 5509 5507 5504 5502 5499 5496 5494 5493 5493 5494 5495 5496 5498 5500 5503
5581 5578 5574 5570 5567 5563 5559 5554 5550 5545 5540 5536 5531 5527 5522 5518 5514 5510 5507 5504 5501 5498 5494 5492 5490 5487 5485 5481 5477 5475 5473 5473 5473 5473 5475 5476 5479 5481
5569 5565 5562 5558 5553 5549 5545 5541 5537 5532 5527 5523 5518 5513 5509 5504 5500 5496 5492 5488 5485 5482 5478 5475 5471 5468 5468 5465 5460 5456 5454 5453 5453 5453 5454 5455 5457 5460
5557 5553 5549 5545 5541 5537 5532 5528 5523 5519 5515 5510 5505 5500 5496 5491 5486 5481 5477 5473 5469 5465 5462 5458 5455 5450 5447 5447 5444 5439 5436 5435 5434 5434 5434 5435 5436 5438
5545 5541 5537 5533 5528 5524 5520 5515 5511 5506 5502 5497 5492 5487 5483 5478 5473 5467 5463 5458 5453 5449 5445 5442 5438 5434 5430 5428 5426 5423 5420 5418 5416 5416 5416 5417 5417 5419
5533 5529 5525 5521 5516 5512 5508 5503 5498 5494 5489 5485 5480 5475 5470 5465 5459 5454 5449 5444 5439 5434 5430 5426 5423 5419 5415 5412 5409 5407 5404 5403 5400 5400 5400 5400 5400 5401
5521 5517 5513 5509 5505 5501 5496 5491 5487 5482 5477 5473 5468 5462 5457 5452 5447 5442 5437 5432 5427 5422 5417 5413 5409 5405 5401 5398 5394 5392 5389 5387 5386 5385 5385 5385 5385 5385
5509 5506 5502 5498 5494 5489 5485 5480 5475 5471 5466 5461 5456 5450 5445 5440 5435 5430 5425 5421 5416 5411 5406 5401 5396 5392 5388 5385 5381 5378 5376 5373 5372 5371 5371 5372 5372 5372
5499 5495 5491 5487 5483 5479 5474 5469 5464 5459 5454 5449 5444 5439 5434 5429 5424 5419 5414 5409 5405 5400 5395 5390 5386 5382 5378 5373 5369 5366 5364 5361 5360 5358 5358 5359 5361 5361
5488 5484 5480 5477 5472 5468 5463 5458 5453 5448 5443 5438 5433 5428 5423 5418 5413 5409 5404 5399 5394 5389 5384 5379 5375 5371 5367 5364 5360 5355 5352 5350 5348 5347 5347 5347 5348 5349
5477 5474 5470 5466 5461 5457 5452 5447 5442 5437 5432 5428 5423 5418 5413 5408 5403 5399 5394 5389 5384 5379 5374 5369 5365 5360 5356 5353 5350 5346 5342 5339 5337 5337 5337 5337 5338 5338
5467 5463 5459 5455 5451 5446 5441 5436 5431 5427 5422 5417 5413 5408 5403 5399 5394 5389 5385 5380 5375 5371 5366 5361 5356 5351 5347 5344 5341 5337 5334 5330 5327 5326 5326 5327 5328 5329
5456 5453 5449 5445 5440 5436 5431 5426 5422 5417 5412 5408 5403 5399 5394 5390 5385 5381 5376 5371 5367 5362 5358 5353 5348 5344 5340 5336 5332 5329 5326 5323 5320 5318 5318 5318 5319 5321
5446 5442 5438 5434 5430 5426 5421 5417 5412 5408 5403 5399 5394 5390 5386 5381 5377 5372 5368 5363 5359 5355 5350 5346 5341 5337 5333 5329 5325 5322 5319 5316 5314 5313 5312 5312 5313 5313